| time (UTC) | temp F | wind direction | speed knots | gust knots | rain 1hr in | rain 24hr in | rain mn in | humidity % | barometer mb |
| 20260509090003 | 56 | 229 | 1.7 | 6.1 | 0.00 | 0.00 | 0.00 | 88 | 1006.5 |
| 20260509085503 | 56 | 229 | 1.7 | 6.1 | 0.00 | 0.00 | 0.00 | 88 | 1006.4 |
| 20260509085004 | 56 | 229 | 1.7 | 6.1 | 0.00 | 0.00 | 0.00 | 88 | 1006.4 |
| 20260509084504 | 56 | 229 | 1.7 | 6.1 | 0.00 | 0.00 | 0.00 | 88 | 1006.5 |
| 20260509084003 | 56 | 229 | 1.7 | 6.1 | 0.00 | 0.00 | 0.00 | 88 | 1006.5 |
| 20260509083503 | 56 | 229 | 1.7 | 6.1 | 0.00 | 0.00 | 0.00 | 88 | 1006.5 |
| 20260509083003 | 56 | 229 | 1.7 | 6.1 | 0.00 | 0.00 | 0.00 | 88 | 1006.6 |
| 20260509082505 | 56 | 229 | 1.7 | 6.1 | 0.00 | 0.00 | 0.00 | 88 | 1006.5 |
| 20260509082004 | 56 | 229 | 1.7 | 6.1 | 0.00 | 0.00 | 0.00 | 88 | 1006.5 |
| 20260509081504 | 56 | 229 | 1.7 | 6.1 | 0.00 | 0.00 | 0.00 | 88 | 1006.6 |
| 20260509081005 | 56 | 229 | 1.7 | 6.1 | 0.00 | 0.00 | 0.00 | 88 | 1006.6 |
| 20260509080503 | 56 | 229 | 1.7 | 6.1 | 0.00 | 0.00 | 0.00 | 88 | 1006.6 |
| 20260509080003 | 56 | 229 | 1.7 | 6.1 | 0.00 | 0.00 | 0.00 | 88 | 1006.6 |
| 20260509075504 | 56 | 229 | 1.7 | 6.1 | 0.00 | 0.00 | 0.00 | 88 | 1006.6 |
| 20260509075004 | 56 | 229 | 1.7 | 6.1 | 0.00 | 0.00 | 0.00 | 88 | 1006.6 |
| 20260509074504 | 56 | 229 | 1.7 | 6.1 | 0.00 | 0.00 | 0.00 | 88 | 1006.6 |
| 20260509074004 | 56 | 229 | 1.7 | 6.1 | 0.00 | 0.00 | 0.00 | 88 | 1006.6 |
| 20260509073503 | 56 | 229 | 1.7 | 6.1 | 0.00 | 0.00 | 0.00 | 88 | 1006.6 |
| 20260509073004 | 56 | 229 | 1.7 | 6.1 | 0.00 | 0.00 | 0.00 | 88 | 1006.6 |
| 20260509072504 | 56 | 229 | 1.7 | 6.1 | 0.00 | 0.00 | 0.00 | 88 | 1006.6 |
| 20260509072004 | 56 | 229 | 1.7 | 6.1 | 0.00 | 0.00 | 0.00 | 88 | 1006.7 |
| 20260509071504 | 56 | 229 | 1.7 | 6.1 | 0.00 | 0.00 | 0.00 | 88 | 1006.7 |
| 20260509071004 | 56 | 229 | 1.7 | 6.1 | 0.00 | 0.00 | 0.00 | 88 | 1006.8 |
| 20260509070503 | 56 | 229 | 1.7 | 6.1 | 0.00 | 0.00 | 0.00 | 88 | 1006.8 |
| 20260509070005 | 56 | 229 | 1.7 | 6.1 | 0.00 | 0.00 | 0.00 | 88 | 1006.9 |
| 20260509065504 | 56 | 229 | 1.7 | 6.1 | 0.00 | 0.00 | 0.00 | 88 | 1007.1 |
| 20260509065004 | 56 | 229 | 1.7 | 6.1 | 0.00 | 0.00 | 0.00 | 88 | 1007.2 |
| 20260509064503 | 56 | 229 | 1.7 | 6.1 | 0.00 | 0.00 | 0.00 | 88 | 1007.2 |
| 20260509064003 | 56 | 229 | 1.7 | 6.1 | 0.00 | 0.00 | 0.00 | 88 | 1007.4 |
| 20260509063503 | 56 | 229 | 1.7 | 6.1 | 0.00 | 0.00 | 0.00 | 88 | 1007.4 |
| 20260509063004 | 56 | 229 | 1.7 | 6.1 | 0.00 | 0.00 | 0.00 | 88 | 1007.4 |
| 20260509062504 | 56 | 229 | 1.7 | 6.1 | 0.00 | 0.00 | 0.00 | 88 | 1007.5 |
| 20260509062003 | 56 | 229 | 1.7 | 6.1 | 0.00 | 0.00 | 0.00 | 88 | 1007.5 |
| 20260509061504 | 56 | 229 | 1.7 | 6.1 | 0.00 | 0.00 | 0.00 | 88 | 1007.7 |
| 20260509061003 | 56 | 229 | 1.7 | 6.1 | 0.00 | 0.00 | 0.00 | 88 | 1007.8 |
| 20260509060503 | 56 | 229 | 1.7 | 6.1 | 0.00 | 0.00 | 0.00 | 88 | 1007.8 |
| 20260509060004 | 56 | 229 | 1.7 | 6.1 | 0.00 | 0.00 | 0.00 | 88 | 1007.9 |
| 20260509055504 | 56 | 229 | 1.7 | 6.1 | 0.00 | 0.00 | 0.00 | 88 | 1008.0 |
| 20260509055003 | 56 | 229 | 1.7 | 6.1 | 0.00 | 0.00 | 0.00 | 88 | 1008.0 |
| 20260509054503 | 56 | 229 | 1.7 | 6.1 | 0.00 | 0.00 | 0.00 | 88 | 1008.0 |
| 20260509054003 | 56 | 229 | 1.7 | 6.1 | 0.00 | 0.00 | 0.00 | 88 | 1008.0 |
| 20260509053504 | 56 | 229 | 1.7 | 6.1 | 0.00 | 0.00 | 0.00 | 87 | 1008.0 |
| 20260509053005 | 56 | 229 | 1.7 | 6.1 | 0.00 | 0.00 | 0.00 | 88 | 1008.2 |
| 20260509052503 | 56 | 229 | 1.7 | 6.1 | 0.00 | 0.00 | 0.00 | 87 | 1008.1 |
| 20260509052004 | 56 | 229 | 1.7 | 6.1 | 0.00 | 0.00 | 0.00 | 87 | 1008.2 |
| 20260509051503 | 56 | 229 | 1.7 | 6.1 | 0.00 | 0.00 | 0.00 | 87 | 1008.3 |
| 20260509051004 | 56 | 229 | 1.7 | 6.1 | 0.00 | 0.00 | 0.00 | 87 | 1008.2 |
| 20260509050505 | 56 | 229 | 1.7 | 6.1 | 0.00 | 0.00 | 0.00 | 87 | 1008.2 |
| 20260509050003 | 56 | 229 | 1.7 | 6.1 | 0.00 | 0.00 | 0.00 | 87 | 1008.1 |
| 20260509045504 | 56 | 229 | 1.7 | 6.1 | 0.00 | 0.00 | 0.00 | 87 | 1008.1 |
| 20260509045003 | 56 | 229 | 1.7 | 6.1 | 0.00 | 0.00 | 0.00 | 87 | 1008.1 |
| 20260509044503 | 56 | 228 | 1.7 | 6.1 | 0.00 | 0.00 | 0.00 | 87 | 1008.0 |
| 20260509044003 | 56 | 223 | 2.6 | 7.8 | 0.00 | 0.00 | 0.00 | 87 | 1008.2 |
| 20260509043504 | 56 | 224 | 2.6 | 7.8 | 0.00 | 0.00 | 0.00 | 87 | 1008.1 |
| 20260509043004 | 56 | 226 | 2.6 | 7.0 | 0.00 | 0.00 | 0.00 | 87 | 1008.1 |
| 20260509042503 | 56 | 221 | 3.5 | 7.8 | 0.00 | 0.00 | 0.00 | 87 | 1008.1 |
| 20260509042004 | 56 | 222 | 3.5 | 8.7 | 0.00 | 0.00 | 0.00 | 87 | 1008.0 |
| 20260509041503 | 56 | 212 | 3.5 | 8.7 | 0.00 | 0.00 | 0.00 | 87 | 1008.0 |
| 20260509041003 | 56 | 202 | 4.3 | 11.3 | 0.00 | 0.00 | 0.00 | 87 | 1008.1 |
| 20260509040504 | 56 | 211 | 4.3 | 11.3 | 0.00 | 0.00 | 0.00 | 87 | 1008.1 |
| 20260509040005 | 56 | 213 | 4.3 | 8.7 | 0.00 | 0.00 | 0.00 | 87 | 1008.1 |
| 20260509035503 | 56 | 207 | 4.3 | 8.7 | 0.00 | 0.00 | 0.00 | 87 | 1008.0 |
| 20260509035004 | 56 | 211 | 4.3 | 8.7 | 0.00 | 0.00 | 0.00 | 87 | 1008.1 |
| 20260509034503 | 56 | 210 | 3.5 | 7.8 | 0.00 | 0.00 | 0.00 | 87 | 1008.1 |
| 20260509034004 | 56 | 210 | 3.5 | 8.7 | 0.00 | 0.00 | 0.00 | 87 | 1008.0 |
| 20260509033504 | 56 | 216 | 3.5 | 8.7 | 0.00 | 0.00 | 0.00 | 87 | 1008.1 |
| 20260509033003 | 56 | 222 | 2.6 | 7.0 | 0.00 | 0.00 | 0.00 | 87 | 1008.1 |
| 20260509032504 | 56 | 219 | 2.6 | 7.0 | 0.00 | 0.00 | 0.00 | 87 | 1008.1 |
| 20260509032004 | 56 | 210 | 3.5 | 8.7 | 0.00 | 0.00 | 0.00 | 87 | 1008.0 |
| 20260509031503 | 56 | 209 | 3.5 | 8.7 | 0.00 | 0.00 | 0.00 | 87 | 1008.0 |
| 20260509031004 | 56 | 204 | 2.6 | 7.8 | 0.00 | 0.00 | 0.00 | 87 | 1008.1 |
| 20260509030503 | 56 | 203 | 1.7 | 7.0 | 0.00 | 0.00 | 0.00 | 87 | 1008.0 |
| 20260509030003 | 56 | 212 | 1.7 | 7.0 | 0.00 | 0.00 | 0.00 | 87 | 1008.1 |
| 20260509025504 | 56 | 215 | 1.7 | 7.0 | 0.00 | 0.00 | 0.00 | 87 | 1008.1 |
| 20260509025005 | 56 | 216 | 1.7 | 7.0 | 0.00 | 0.00 | 0.00 | 87 | 1008.4 |
| 20260509024503 | 56 | 219 | 1.7 | 5.2 | 0.00 | 0.00 | 0.00 | 87 | 1008.3 |
| 20260509024004 | 56 | 221 | 1.7 | 6.1 | 0.00 | 0.00 | 0.00 | 87 | 1008.4 |
| 20260509023504 | 56 | 226 | 3.5 | 7.8 | 0.00 | 0.00 | 0.00 | 87 | 1008.3 |
| 20260509023005 | 56 | 229 | 2.6 | 7.8 | 0.00 | 0.00 | 0.00 | 86 | 1008.4 |
| 20260509022505 | 56 | 226 | 2.6 | 8.7 | 0.00 | 0.00 | 0.00 | 86 | 1008.4 |
| 20260509022003 | 56 | 221 | 3.5 | 11.3 | 0.00 | 0.00 | 0.00 | 86 | 1008.5 |
| 20260509021504 | 56 | 230 | 4.3 | 13.0 | 0.00 | 0.00 | 0.00 | 86 | 1008.5 |
| 20260509021003 | 56 | 243 | 5.2 | 13.0 | 0.00 | 0.00 | 0.00 | 86 | 1008.5 |
| 20260509020505 | 56 | 248 | 5.2 | 11.3 | 0.00 | 0.00 | 0.00 | 86 | 1008.3 |
| 20260509020003 | 56 | 249 | 6.1 | 12.2 | 0.00 | 0.00 | 0.00 | 86 | 1008.3 |
| 20260509015505 | 56 | 252 | 7.0 | 13.9 | 0.00 | 0.00 | 0.00 | 86 | 1008.1 |
| 20260509015004 | 56 | 256 | 5.2 | 13.9 | 0.00 | 0.00 | 0.00 | 86 | 1008.1 |
| 20260509014503 | 57 | 251 | 4.3 | 13.0 | 0.00 | 0.00 | 0.00 | 86 | 1008.1 |
| 20260509014003 | 57 | 236 | 3.5 | 9.6 | 0.00 | 0.00 | 0.00 | 86 | 1008.1 |
| 20260509013504 | 57 | 229 | 3.5 | 9.6 | 0.00 | 0.00 | 0.00 | 86 | 1008.2 |
| 20260509013004 | 57 | 226 | 2.6 | 8.7 | 0.00 | 0.00 | 0.00 | 86 | 1008.2 |
| 20260509012504 | 57 | 233 | 2.6 | 8.7 | 0.00 | 0.00 | 0.00 | 86 | 1008.1 |
| 20260509012003 | 57 | 236 | 2.6 | 7.8 | 0.00 | 0.00 | 0.00 | 86 | 1008.2 |
| 20260509011504 | 57 | 244 | 2.6 | 7.8 | 0.00 | 0.00 | 0.00 | 86 | 1008.2 |
| 20260509011004 | 57 | 254 | 2.6 | 7.8 | 0.00 | 0.00 | 0.00 | 86 | 1008.1 |
| 20260509010503 | 57 | 253 | 2.6 | 8.7 | 0.00 | 0.00 | 0.00 | 86 | 1008.2 |
| 20260509010004 | 57 | 255 | 3.5 | 8.7 | 0.00 | 0.00 | 0.00 | 86 | 1008.3 |
| 20260509005503 | 57 | 259 | 2.6 | 7.8 | 0.00 | 0.00 | 0.00 | 86 | 1008.3 |
| 20260509005003 | 57 | 246 | 1.7 | 4.3 | 0.00 | 0.00 | 0.00 | 85 | 1008.4 |
| 20260509004503 | 57 | 229 | 1.7 | 4.3 | 0.00 | 0.00 | 0.00 | 85 | 1008.4 |
| 20260509004004 | 57 | 221 | 2.6 | 5.2 | 0.00 | 0.00 | 0.00 | 85 | 1008.3 |
| 20260509003504 | 57 | 216 | 2.6 | 7.8 | 0.00 | 0.00 | 0.00 | 85 | 1008.2 |
| 20260509003003 | 57 | 223 | 2.6 | 7.8 | 0.00 | 0.00 | 0.00 | 85 | 1008.1 |
| 20260509002503 | 57 | 238 | 1.7 | 7.8 | 0.00 | 0.00 | 0.00 | 85 | 1008.1 |
| 20260509002003 | 57 | 239 | 1.7 | 5.2 | 0.00 | 0.00 | 0.00 | 85 | 1008.2 |
| 20260509001504 | 57 | 239 | 0.9 | 5.2 | 0.00 | 0.00 | 0.00 | 85 | 1008.3 |
| 20260509001004 | 57 | 238 | 1.7 | 5.2 | 0.00 | 0.00 | 0.00 | 85 | 1008.3 |
| 20260509000503 | 57 | 250 | 1.7 | 6.1 | 0.00 | 0.00 | 0.00 | 85 | 1008.4 |
| 20260509000004 | 57 | 256 | 1.7 | 7.0 | 0.00 | 0.00 | 0.00 | 85 | 1008.6 |
| 20260508235503 | 57 | 258 | 1.7 | 7.0 | 0.00 | 0.00 | 0.00 | 84 | 1008.7 |
| 20260508235003 | 57 | 251 | 2.6 | 7.0 | 0.00 | 0.00 | 0.00 | 84 | 1008.7 |
| 20260508234504 | 57 | 252 | 2.6 | 7.0 | 0.00 | 0.00 | 0.00 | 84 | 1008.6 |
| 20260508234004 | 57 | 257 | 2.6 | 7.0 | 0.00 | 0.00 | 0.00 | 84 | 1008.7 |
| 20260508233504 | 57 | 246 | 2.6 | 7.0 | 0.00 | 0.00 | 0.00 | 84 | 1008.7 |
| 20260508233003 | 57 | 236 | 2.6 | 6.1 | 0.00 | 0.00 | 0.00 | 84 | 1008.6 |
| 20260508232504 | 57 | 235 | 1.7 | 5.2 | 0.00 | 0.00 | 0.00 | 83 | 1008.5 |
| 20260508232004 | 57 | 236 | 1.7 | 6.1 | 0.00 | 0.00 | 0.00 | 83 | 1008.5 |
| 20260508231504 | 57 | 239 | 1.7 | 6.1 | 0.00 | 0.00 | 0.00 | 83 | 1008.5 |
| 20260508231004 | 57 | 244 | 1.7 | 5.2 | 0.00 | 0.00 | 0.00 | 83 | 1008.5 |
| 20260508230503 | 57 | 245 | 2.6 | 5.2 | 0.00 | 0.00 | 0.00 | 82 | 1008.6 |
| 20260508230004 | 58 | 247 | 1.7 | 7.0 | 0.00 | 0.00 | 0.00 | 82 | 1008.8 |
| 20260508225504 | 58 | 284 | 1.7 | 7.0 | 0.00 | 0.00 | 0.00 | 82 | 1009.0 |
| 20260508225004 | 58 | 336 | 0.9 | 3.5 | 0.00 | 0.00 | 0.00 | 82 | 1009.1 |
| 20260508224504 | 58 | 336 | 0.9 | 1.7 | 0.00 | 0.00 | 0.00 | 81 | 1008.8 |
| 20260508224003 | 58 | 336 | 0.0 | 1.7 | 0.00 | 0.00 | 0.00 | 81 | 1008.7 |
| 20260508223504 | 58 | 337 | 0.0 | 0.9 | 0.00 | 0.00 | 0.00 | 81 | 1008.7 |
| 20260508223004 | 58 | 337 | 0.0 | 0.9 | 0.00 | 0.00 | 0.00 | 81 | 1008.8 |
| 20260508222503 | 58 | 337 | 0.0 | 0.9 | 0.00 | 0.00 | 0.00 | 81 | 1008.9 |
| 20260508222003 | 58 | 336 | 0.0 | 1.7 | 0.00 | 0.00 | 0.00 | 80 | 1008.8 |
| 20260508221505 | 58 | 336 | 0.0 | 1.7 | 0.00 | 0.00 | 0.00 | 80 | 1008.9 |
| 20260508221004 | 58 | 336 | 0.9 | 3.5 | 0.00 | 0.00 | 0.00 | 80 | 1008.9 |
| 20260508220503 | 58 | 337 | 1.7 | 4.3 | 0.00 | 0.00 | 0.00 | 80 | 1008.9 |
| 20260508220004 | 58 | 337 | 1.7 | 4.3 | 0.00 | 0.00 | 0.00 | 79 | 1009.1 |
| 20260508215503 | 59 | 339 | 0.9 | 5.2 | 0.00 | 0.00 | 0.00 | 79 | 1009.0 |
| 20260508215004 | 59 | 318 | 2.6 | 7.8 | 0.00 | 0.00 | 0.00 | 78 | 1009.0 |
| 20260508214504 | 59 | 317 | 3.5 | 9.6 | 0.00 | 0.00 | 0.00 | 78 | 1009.1 |
| 20260508214004 | 59 | 318 | 4.3 | 9.6 | 0.00 | 0.00 | 0.00 | 76 | 1009.2 |
| 20260508213505 | 60 | 316 | 3.5 | 9.6 | 0.00 | 0.00 | 0.00 | 76 | 1009.1 |
| 20260508213005 | 60 | 314 | 1.7 | 8.7 | 0.00 | 0.00 | 0.00 | 74 | 1008.9 |
| 20260508212503 | 61 | 308 | 0.9 | 7.0 | 0.00 | 0.00 | 0.00 | 73 | 1008.8 |
| 20260508212004 | 61 | 311 | 1.7 | 7.0 | 0.00 | 0.00 | 0.00 | 72 | 1008.7 |
| 20260508211505 | 62 | 319 | 2.6 | 10.4 | 0.00 | 0.00 | 0.00 | 71 | 1008.7 |
| 20260508211003 | 63 | 320 | 4.3 | 10.4 | 0.00 | 0.00 | 0.00 | 69 | 1008.7 |
| 20260508210503 | 63 | 310 | 4.3 | 17.4 | 0.00 | 0.00 | 0.00 | 67 | 1008.7 |
| 20260508210003 | 64 | 293 | 3.5 | 17.4 | 0.00 | 0.00 | 0.00 | 65 | 1008.8 |
| 20260508205505 | 65 | 272 | 2.6 | 7.0 | 0.00 | 0.00 | 0.00 | 63 | 1008.6 |
| 20260508205003 | 65 | 264 | 2.6 | 7.0 | 0.00 | 0.00 | 0.00 | 61 | 1008.5 |
| 20260508204503 | 65 | 254 | 2.6 | 8.7 | 0.00 | 0.00 | 0.00 | 56 | 1008.3 |
| 20260508204005 | 66 | 251 | 2.6 | 8.7 | 0.00 | 0.00 | 0.00 | 55 | 1008.3 |
| 20260508203504 | 66 | 248 | 2.6 | 7.8 | 0.00 | 0.00 | 0.00 | 55 | 1008.3 |
| 20260508203004 | 66 | 244 | 2.6 | 8.7 | 0.00 | 0.00 | 0.00 | 52 | 1008.2 |
| 20260508202504 | 66 | 248 | 1.7 | 8.7 | 0.00 | 0.00 | 0.00 | 55 | 1008.4 |
| 20260508202003 | 66 | 251 | 2.6 | 9.6 | 0.00 | 0.00 | 0.00 | 50 | 1008.4 |
| 20260508201503 | 66 | 249 | 3.5 | 9.6 | 0.00 | 0.00 | 0.00 | 49 | 1008.4 |
| 20260508201003 | 66 | 245 | 3.5 | 13.0 | 0.00 | 0.00 | 0.00 | 49 | 1008.5 |
| 20260508200504 | 66 | 242 | 3.5 | 13.0 | 0.00 | 0.00 | 0.00 | 49 | 1008.5 |
| 20260508200004 | 66 | 252 | 3.5 | 10.4 | 0.00 | 0.00 | 0.00 | 50 | 1008.6 |
| 20260508195504 | 66 | 255 | 2.6 | 7.0 | 0.00 | 0.00 | 0.00 | 53 | 1008.6 |
| 20260508195003 | 66 | 229 | 2.6 | 6.1 | 0.00 | 0.00 | 0.00 | 52 | 1008.7 |
| 20260508194504 | 66 | 235 | 3.5 | 7.8 | 0.00 | 0.00 | 0.00 | 52 | 1008.7 |
| 20260508194004 | 66 | 237 | 2.6 | 7.8 | 0.00 | 0.00 | 0.00 | 54 | 1008.8 |
| 20260508193504 | 66 | 231 | 3.5 | 9.6 | 0.00 | 0.00 | 0.00 | 53 | 1008.8 |
| 20260508193004 | 66 | 231 | 3.5 | 9.6 | 0.00 | 0.00 | 0.00 | 53 | 1008.9 |
| 20260508192503 | 66 | 228 | 3.5 | 9.6 | 0.00 | 0.00 | 0.00 | 53 | 1009.0 |
| 20260508192003 | 65 | 222 | 3.5 | 9.6 | 0.00 | 0.00 | 0.00 | 54 | 1009.2 |
| 20260508191504 | 65 | 218 | 3.5 | 10.4 | 0.00 | 0.00 | 0.00 | 52 | 1009.3 |
| 20260508191003 | 65 | 223 | 4.3 | 10.4 | 0.00 | 0.00 | 0.00 | 54 | 1009.3 |
| 20260508190503 | 65 | 223 | 4.3 | 11.3 | 0.00 | 0.00 | 0.00 | 52 | 1009.3 |
| 20260508190004 | 65 | 231 | 3.5 | 11.3 | 0.00 | 0.00 | 0.00 | 54 | 1009.5 |
| 20260508185505 | 65 | 235 | 3.5 | 8.7 | 0.00 | 0.00 | 0.00 | 53 | 1009.6 |
| 20260508185004 | 64 | 230 | 3.5 | 7.8 | 0.00 | 0.00 | 0.00 | 54 | 1009.8 |
| 20260508184504 | 64 | 243 | 4.3 | 13.0 | 0.00 | 0.00 | 0.00 | 54 | 1009.9 |
| 20260508184003 | 64 | 249 | 6.1 | 13.0 | 0.00 | 0.00 | 0.00 | 53 | 1010.0 |
| 20260508183503 | 64 | 249 | 6.1 | 15.6 | 0.00 | 0.00 | 0.00 | 52 | 1010.1 |
| 20260508183004 | 64 | 253 | 5.2 | 15.6 | 0.00 | 0.00 | 0.00 | 52 | 1010.1 |
| 20260508182504 | 64 | 253 | 3.5 | 10.4 | 0.00 | 0.00 | 0.00 | 53 | 1010.1 |
| 20260508182004 | 64 | 231 | 3.5 | 12.2 | 0.00 | 0.00 | 0.00 | 53 | 1010.1 |
| 20260508181503 | 64 | 228 | 4.3 | 13.9 | 0.00 | 0.00 | 0.00 | 52 | 1010.1 |
| 20260508181003 | 64 | 235 | 5.2 | 13.9 | 0.00 | 0.00 | 0.00 | 51 | 1010.2 |
| 20260508180505 | 64 | 237 | 6.1 | 13.9 | 0.00 | 0.00 | 0.00 | 52 | 1010.2 |
| 20260508180004 | 64 | 240 | 7.0 | 13.0 | 0.00 | 0.00 | 0.00 | 50 | 1010.2 |
| 20260508175504 | 65 | 236 | 6.1 | 13.0 | 0.00 | 0.00 | 0.00 | 51 | 1010.2 |
| 20260508175003 | 65 | 234 | 4.3 | 13.0 | 0.00 | 0.00 | 0.00 | 51 | 1010.3 |
| 20260508174503 | 65 | 242 | 5.2 | 12.2 | 0.00 | 0.00 | 0.00 | 50 | 1010.3 |
| 20260508174003 | 65 | 244 | 5.2 | 14.8 | 0.00 | 0.00 | 0.00 | 49 | 1010.4 |
| 20260508173503 | 66 | 237 | 5.2 | 14.8 | 0.00 | 0.00 | 0.00 | 47 | 1010.5 |
| 20260508173004 | 67 | 245 | 6.1 | 13.9 | 0.00 | 0.00 | 0.00 | 46 | 1010.6 |
| 20260508172504 | 67 | 236 | 6.1 | 13.9 | 0.00 | 0.00 | 0.00 | 45 | 1010.6 |
| 20260508172003 | 68 | 217 | 6.1 | 13.9 | 0.00 | 0.00 | 0.00 | 46 | 1010.7 |
| 20260508171503 | 68 | 220 | 7.0 | 15.6 | 0.00 | 0.00 | 0.00 | 45 | 1010.6 |
| 20260508171005 | 69 | 222 | 7.0 | 15.6 | 0.00 | 0.00 | 0.00 | 45 | 1010.6 |
| 20260508170504 | 69 | 216 | 6.1 | 13.9 | 0.00 | 0.00 | 0.00 | 45 | 1010.7 |
| 20260508170003 | 69 | 209 | 6.1 | 13.9 | 0.00 | 0.00 | 0.00 | 49 | 1010.7 |
| 20260508165504 | 68 | 215 | 5.2 | 13.0 | 0.00 | 0.00 | 0.00 | 48 | 1010.8 |
| 20260508165004 | 68 | 229 | 6.1 | 15.6 | 0.00 | 0.00 | 0.00 | 51 | 1010.9 |
| 20260508164504 | 67 | 230 | 7.0 | 15.6 | 0.00 | 0.00 | 0.00 | 50 | 1010.9 |
| 20260508164004 | 66 | 227 | 6.1 | 13.0 | 0.00 | 0.00 | 0.00 | 49 | 1011.0 |
| 20260508163503 | 66 | 222 | 6.1 | 13.9 | 0.00 | 0.00 | 0.00 | 47 | 1011.2 |
| 20260508163003 | 66 | 229 | 5.2 | 13.9 | 0.00 | 0.00 | 0.00 | 48 | 1011.2 |
| 20260508162503 | 66 | 246 | 7.8 | 14.8 | 0.00 | 0.00 | 0.00 | 47 | 1011.3 |
| 20260508162003 | 66 | 253 | 7.8 | 14.8 | 0.00 | 0.00 | 0.00 | 45 | 1011.4 |
| 20260508161504 | 66 | 254 | 7.8 | 19.1 | 0.00 | 0.00 | 0.00 | 47 | 1011.5 |
| 20260508161003 | 66 | 252 | 8.7 | 19.1 | 0.00 | 0.00 | 0.00 | 47 | 1011.4 |
| 20260508160503 | 66 | 245 | 8.7 | 17.4 | 0.00 | 0.00 | 0.00 | 46 | 1011.5 |
| 20260508160003 | 66 | 238 | 7.8 | 17.4 | 0.00 | 0.00 | 0.00 | 49 | 1011.5 |
| 20260508155504 | 65 | 242 | 8.7 | 16.5 | 0.00 | 0.00 | 0.00 | 48 | 1011.6 |
| 20260508155004 | 65 | 243 | 7.8 | 16.5 | 0.00 | 0.00 | 0.00 | 47 | 1011.6 |
| 20260508154503 | 65 | 246 | 7.0 | 20.0 | 0.00 | 0.00 | 0.00 | 48 | 1011.6 |
| 20260508154003 | 65 | 247 | 8.7 | 20.0 | 0.00 | 0.00 | 0.00 | 48 | 1011.5 |
| 20260508153503 | 65 | 247 | 7.8 | 16.5 | 0.00 | 0.00 | 0.00 | 49 | 1011.5 |
| 20260508153004 | 65 | 238 | 7.0 | 14.8 | 0.00 | 0.00 | 0.00 | 49 | 1011.6 |
| 20260508152504 | 64 | 231 | 6.1 | 13.0 | 0.00 | 0.00 | 0.00 | 48 | 1011.7 |
| 20260508152004 | 64 | 238 | 4.3 | 13.0 | 0.00 | 0.00 | 0.00 | 48 | 1011.7 |
| 20260508151503 | 65 | 246 | 5.2 | 17.4 | 0.00 | 0.00 | 0.00 | 49 | 1011.7 |
| 20260508151003 | 65 | 253 | 7.0 | 17.4 | 0.00 | 0.00 | 0.00 | 48 | 1011.7 |
| 20260508150503 | 65 | 257 | 7.0 | 17.4 | 0.00 | 0.00 | 0.00 | 49 | 1011.7 |
| 20260508150004 | 65 | 256 | 7.0 | 17.4 | 0.00 | 0.00 | 0.00 | 47 | 1011.7 |
| 20260508145503 | 65 | 253 | 6.1 | 13.9 | 0.00 | 0.00 | 0.00 | 48 | 1011.7 |
| 20260508145003 | 64 | 248 | 6.1 | 14.8 | 0.00 | 0.00 | 0.00 | 51 | 1011.8 |
| 20260508144505 | 64 | 249 | 7.0 | 14.8 | 0.00 | 0.00 | 0.00 | 51 | 1011.8 |
| 20260508144003 | 63 | 256 | 7.8 | 15.6 | 0.00 | 0.00 | 0.00 | 50 | 1011.9 |
| 20260508143503 | 63 | 257 | 9.6 | 18.2 | 0.00 | 0.00 | 0.00 | 50 | 1012.0 |
| 20260508143004 | 63 | 255 | 8.7 | 18.2 | 0.00 | 0.00 | 0.00 | 50 | 1012.1 |
| 20260508142504 | 62 | 261 | 6.1 | 15.6 | 0.00 | 0.00 | 0.00 | 51 | 1012.2 |
| 20260508142005 | 62 | 264 | 6.1 | 13.9 | 0.00 | 0.00 | 0.00 | 52 | 1012.2 |
| 20260508141503 | 62 | 264 | 5.2 | 13.9 | 0.00 | 0.00 | 0.00 | 53 | 1012.2 |
| 20260508141004 | 61 | 250 | 3.5 | 11.3 | 0.00 | 0.00 | 0.00 | 55 | 1012.3 |
| 20260508140503 | 60 | 239 | 5.2 | 11.3 | 0.00 | 0.00 | 0.00 | 54 | 1012.3 |
| 20260508140004 | 60 | 261 | 5.2 | 12.2 | 0.00 | 0.00 | 0.00 | 54 | 1012.3 |
| 20260508135505 | 60 | 266 | 4.3 | 12.2 | 0.00 | 0.00 | 0.00 | 55 | 1012.4 |
| 20260508135005 | 59 | 251 | 6.1 | 13.9 | 0.00 | 0.00 | 0.00 | 54 | 1012.5 |
| 20260508134503 | 59 | 250 | 6.1 | 13.9 | 0.00 | 0.00 | 0.00 | 53 | 1012.4 |
| 20260508134003 | 58 | 256 | 5.2 | 11.3 | 0.00 | 0.00 | 0.00 | 55 | 1012.4 |
| 20260508133504 | 58 | 251 | 5.2 | 13.0 | 0.00 | 0.00 | 0.00 | 56 | 1012.5 |
| 20260508133003 | 58 | 256 | 6.1 | 13.0 | 0.00 | 0.00 | 0.00 | 56 | 1012.5 |
| 20260508132504 | 57 | 264 | 6.1 | 14.8 | 0.00 | 0.00 | 0.00 | 56 | 1012.6 |
| 20260508132004 | 57 | 263 | 4.3 | 14.8 | 0.00 | 0.00 | 0.00 | 57 | 1012.6 |
| 20260508131503 | 56 | 265 | 4.3 | 10.4 | 0.00 | 0.00 | 0.00 | 58 | 1012.7 |
| 20260508131004 | 56 | 258 | 4.3 | 11.3 | 0.00 | 0.00 | 0.00 | 58 | 1012.7 |
| 20260508130504 | 56 | 251 | 5.2 | 13.9 | 0.00 | 0.00 | 0.00 | 58 | 1012.6 |
| 20260508130005 | 55 | 259 | 4.3 | 13.9 | 0.00 | 0.00 | 0.00 | 58 | 1012.6 |
| 20260508125504 | 55 | 262 | 3.5 | 9.6 | 0.00 | 0.00 | 0.00 | 60 | 1012.6 |
| 20260508125004 | 54 | 252 | 3.5 | 9.6 | 0.00 | 0.00 | 0.00 | 61 | 1012.6 |
| 20260508124504 | 54 | 252 | 4.3 | 9.6 | 0.00 | 0.00 | 0.00 | 60 | 1012.6 |
| 20260508124003 | 54 | 247 | 6.1 | 12.2 | 0.00 | 0.00 | 0.00 | 60 | 1012.4 |
| 20260508123504 | 53 | 239 | 5.2 | 12.2 | 0.00 | 0.00 | 0.00 | 61 | 1012.5 |
| 20260508123004 | 53 | 230 | 4.3 | 13.0 | 0.00 | 0.00 | 0.00 | 62 | 1012.3 |
| 20260508122504 | 52 | 243 | 5.2 | 13.0 | 0.00 | 0.00 | 0.00 | 63 | 1012.2 |
| 20260508122003 | 52 | 255 | 6.1 | 17.4 | 0.00 | 0.00 | 0.00 | 63 | 1012.3 |
| 20260508121504 | 51 | 248 | 4.3 | 17.4 | 0.00 | 0.00 | 0.00 | 64 | 1012.5 |
| 20260508121004 | 51 | 233 | 4.3 | 10.4 | 0.00 | 0.00 | 0.00 | 65 | 1012.4 |
| 20260508120505 | 50 | 233 | 4.3 | 10.4 | 0.00 | 0.00 | 0.00 | 65 | 1012.4 |
| 20260508120003 | 50 | 233 | 4.3 | 10.4 | 0.00 | 0.00 | 0.00 | 66 | 1012.3 |
| 20260508115505 | 50 | 233 | 4.3 | 10.4 | 0.00 | 0.00 | 0.00 | 67 | 1012.4 |
| 20260508115005 | 49 | 233 | 4.3 | 10.4 | 0.00 | 0.00 | 0.00 | 67 | 1012.4 |
| 20260508114504 | 49 | 233 | 4.3 | 10.4 | 0.00 | 0.00 | 0.00 | 67 | 1012.3 |
| 20260508114003 | 49 | 233 | 4.3 | 10.4 | 0.00 | 0.00 | 0.00 | 67 | 1012.3 |
| 20260508113504 | 49 | 233 | 4.3 | 10.4 | 0.00 | 0.00 | 0.00 | 67 | 1012.2 |
| 20260508113005 | 48 | 233 | 4.3 | 10.4 | 0.00 | 0.00 | 0.00 | 67 | 1012.3 |
| 20260508112504 | 48 | 233 | 4.3 | 10.4 | 0.00 | 0.00 | 0.00 | 67 | 1012.2 |
| 20260508112003 | 48 | 233 | 4.3 | 10.4 | 0.00 | 0.00 | 0.00 | 68 | 1012.2 |
| 20260508111503 | 48 | 233 | 4.3 | 10.4 | 0.00 | 0.00 | 0.00 | 68 | 1012.2 |
| 20260508111003 | 48 | 233 | 4.3 | 10.4 | 0.00 | 0.00 | 0.00 | 68 | 1012.2 |
| 20260508110505 | 48 | 233 | 4.3 | 10.4 | 0.00 | 0.00 | 0.00 | 68 | 1012.2 |
| 20260508110004 | 48 | 233 | 4.3 | 10.4 | 0.00 | 0.00 | 0.00 | 68 | 1012.2 |
| 20260508105503 | 48 | 233 | 4.3 | 10.4 | 0.00 | 0.00 | 0.00 | 68 | 1012.1 |
| 20260508105004 | 48 | 233 | 4.3 | 10.4 | 0.00 | 0.00 | 0.00 | 68 | 1012.1 |
| 20260508104504 | 48 | 233 | 4.3 | 10.4 | 0.00 | 0.00 | 0.00 | 68 | 1012.0 |
| 20260508104003 | 48 | 233 | 4.3 | 10.4 | 0.00 | 0.00 | 0.00 | 67 | 1012.0 |
| 20260508103504 | 48 | 233 | 4.3 | 10.4 | 0.00 | 0.00 | 0.00 | 67 | 1012.0 |
| 20260508103004 | 49 | 233 | 4.3 | 10.4 | 0.00 | 0.00 | 0.00 | 67 | 1012.0 |
| 20260508102504 | 49 | 233 | 4.3 | 10.4 | 0.00 | 0.00 | 0.00 | 66 | 1012.0 |
| 20260508102005 | 49 | 233 | 4.3 | 10.4 | 0.00 | 0.00 | 0.00 | 66 | 1012.0 |
| 20260508101505 | 49 | 233 | 4.3 | 10.4 | 0.00 | 0.00 | 0.00 | 66 | 1012.0 |
| 20260508101004 | 50 | 233 | 4.3 | 10.4 | 0.00 | 0.00 | 0.00 | 66 | 1012.0 |
| 20260508100503 | 50 | 233 | 4.3 | 10.4 | 0.00 | 0.00 | 0.00 | 65 | 1011.9 |
| 20260508100003 | 50 | 233 | 4.3 | 10.4 | 0.00 | 0.00 | 0.00 | 65 | 1012.1 |
| 20260508095503 | 50 | 233 | 4.3 | 10.4 | 0.00 | 0.00 | 0.00 | 64 | 1012.1 |
| 20260508095006 | 50 | 233 | 4.3 | 10.4 | 0.00 | 0.00 | 0.00 | 64 | 1012.0 |
| 20260508094505 | 51 | 233 | 4.3 | 10.4 | 0.00 | 0.00 | 0.00 | 63 | 1012.1 |
| 20260508094004 | 51 | 233 | 4.3 | 10.4 | 0.00 | 0.00 | 0.00 | 63 | 1012.0 |
| 20260508093503 | 51 | 233 | 4.3 | 10.4 | 0.00 | 0.00 | 0.00 | 62 | 1012.1 |
| 20260508093003 | 51 | 233 | 4.3 | 10.4 | 0.00 | 0.00 | 0.00 | 62 | 1012.0 |
| 20260508092504 | 52 | 233 | 4.3 | 10.4 | 0.00 | 0.00 | 0.00 | 61 | 1012.1 |
| 20260508092005 | 52 | 233 | 4.3 | 10.4 | 0.00 | 0.00 | 0.00 | 61 | 1012.1 |
| 20260508091504 | 52 | 233 | 4.3 | 10.4 | 0.00 | 0.00 | 0.00 | 60 | 1012.1 |
| 20260508091003 | 52 | 233 | 4.3 | 10.4 | 0.00 | 0.00 | 0.00 | 60 | 1012.0 |
| 20260508090505 | 52 | 233 | 4.3 | 10.4 | 0.00 | 0.00 | 0.00 | 60 | 1012.0 |